[[{"header":{"parameterUnit":"m.s-1","parameterCategory":1,"la1":30.2991,"la2":30.254,"lo1":-89.0895,"lo2":-89.0444,"dy":0.0017,"dx":0.0017,"nx":28,"ny":28,"refTime":"2025-05-22T21:00:00:Z","depth":0,"parameterNumber":2,"parameterNumberName":"U-component_of_WINDS"},"data":[0,0,0,0,0,0,0,0,0,0,0,0,0,0,0,0,0,0,0,0,0,0,0,0,0,0,0,0,0,0,0,0,0,0,0,0,0,0,0,0,0,0,0,0,0,0,0,0,0,0,0,0,0,0,0,0,0,0,-1.1082,-1.1081,0,-1.1067,-1.1067,-1.1067,-1.1026,-1.1025,-1.1025,-1.1024,-1.101,-1.101,-1.1011,0,0,0,0,0,0,0,0,0,0,0,0,0,-1.1076,-1.1076,-1.1082,-1.1081,-1.1081,-1.1067,-1.1067,-1.1067,-1.1026,-1.1025,-1.1024,-1.1023,-1.101,-1.101,-1.1011,0,0,0,0,0,0,0,0,0,0,0,0,0,-1.1072,-1.1076,-1.1082,-1.1059,-1.1057,-1.1067,-1.1067,-1.1067,-1.1027,-1.1025,-1.1024,-1.1023,-1.1009,-1.101,-1.1011,-1.1041,0,0,-1.1013,-1.1013,0,0,0,0,0,0,0,0,-1.1072,-1.1072,-1.1063,-1.1061,-1.1059,-1.1047,-1.106,-1.1058,-1.1027,-1.1038,-1.1024,-1.1022,-1.1023,-1.1023,-1.1023,-1.1041,-1.104,-1.1013,-1.1013,-1.1014,-1.1014,0,0,0,0,0,0,0,-1.1072,-1.1072,-1.1076,-1.1063,-1.106,-1.1051,-1.1049,-1.1059,-1.1038,-1.1037,-1.1034,-1.1033,-1.1022,-1.1022,-1.1022,-1.104,-1.1013,-1.1013,-1.1014,-1.1014,-1.1083,-1.1084,0,0,0,0,0,0,-1.1076,-1.1073,-1.1076,-1.1075,-1.1062,-1.1052,-1.105,-1.1052,-1.1038,-1.1035,-1.1034,-1.1031,-1.1022,-1.1022,-1.1022,-1.1057,-1.1014,-1.1014,-1.1015,-1.1081,-1.1083,-1.1085,0,0,0,0,0,0,-1.1076,-1.1076,-1.1077,-1.1073,-1.1073,-1.1053,-1.1057,-1.1053,-1.1053,-1.1036,-1.1032,-1.1038,-1.1021,-1.1021,-1.1037,-1.1056,-1.1015,-1.1015,-1.108,-1.1082,-1.1084,-1.1127,0,0,0,0,0,0,-1.1076,-1.1077,-1.1088,-1.1074,-1.1073,-1.1092,-1.1058,-1.1053,-1.1054,-1.105,-1.1039,-1.1036,-1.102,-1.1036,-1.1038,-1.1056,-1.1016,-1.1078,-1.1081,-1.1083,-1.1124,-1.1131,-1.1136,0,0,0,0,0,-1.1076,-1.11,-1.1088,-1.1089,-1.1086,-1.1093,-1.1093,-1.1074,-1.1056,-1.1067,-1.1056,-1.1036,-1.1054,-1.1038,-1.1039,-1.1058,-1.1076,-1.108,-1.1083,-1.1121,-1.1129,-1.1136,0,0,0,0,0,0,-1.1117,-1.1098,-1.1085,-1.1106,-1.1101,-1.1086,-1.11,-1.1083,-1.1083,-1.108,-1.1056,-1.1054,-1.1074,-1.1068,-1.1051,-1.1088,-1.1062,-1.1065,-1.1091,-1.1098,-1.1104,-1.1105,-1.1016,0,0,0,0,0,-1.1129,-1.1135,-1.1119,-1.1139,-1.1137,-1.1119,-1.1121,-1.1107,-1.1102,-1.11,-1.109,-1.1086,-1.1091,-1.1094,-1.1097,-1.1123,-1.112,-1.1137,-1.1143,-1.1148,-1.1152,-1.1165,-1.1173,-1.1095,-1.1095,-1.1095,0,0,-1.1153,-1.1143,-1.1149,-1.1147,-1.1142,-1.115,-1.1118,-1.1127,-1.1133,-1.1101,-1.1116,-1.1109,-1.1103,-1.1124,-1.1133,-1.112,-1.1173,-1.1152,-1.1156,-1.1157,-1.1169,-1.1177,-1.1183,-1.1097,-1.1097,-1.1096,0,0,-1.12,-1.1194,-1.121,-1.1206,-1.1198,-1.1186,-1.119,-1.1178,-1.1172,-1.1186,-1.1163,-1.117,-1.1178,-1.1175,-1.1174,-1.1222,-1.1204,-1.1224,-1.1255,-1.1269,-1.1275,-1.1281,-1.1298,-1.1304,-1.1227,-1.1227,-1.1227,0,-1.1231,-1.1242,-1.1221,-1.1232,-1.1232,-1.1204,-1.122,-1.1217,-1.1212,-1.1213,-1.1198,-1.1208,-1.1202,-1.1223,-1.1234,-1.1235,-1.1239,-1.1225,-1.1276,-1.1281,-1.1286,-1.1302,-1.1309,-1.123,-1.1229,-1.1229,-1.1229,0,-1.128,-1.1288,-1.1302,-1.1297,-1.1299,-1.1313,-1.1295,-1.1299,-1.1285,-1.1275,-1.129,-1.1282,-1.1283,-1.1287,-1.1274,-1.1306,-1.1298,-1.128,-1.1254,-1.1296,-1.1311,-1.1317,-1.1233,-1.1232,-1.1232,-1.1231,0,0,-1.1353,-1.1337,-1.1343,-1.134,-1.133,-1.1336,-1.135,-1.1351,-1.1355,-1.1353,-1.1363,-1.1371,-1.1355,-1.1354,-1.134,-1.1352,-1.1391,-1.1333,-1.1332,-1.1344,-1.1427,-1.1441,-1.1448,-1.1379,-1.138,-1.1381,-1.1428,0,-1.1399,-1.1419,-1.1401,-1.1426,-1.1433,-1.1407,-1.1418,-1.1414,-1.1405,-1.141,-1.14,-1.1406,-1.1384,-1.1383,-1.1394,-1.1384,-1.1408,-1.1381,-1.1389,-1.139,-1.1392,-1.1456,-1.147,-1.1515,-1.1433,-1.1434,-1.1435,0,-1.1454,-1.1454,-1.1479,-1.1468,-1.1471,-1.1481,-1.1481,-1.1486,-1.1481,-1.1474,-1.1474,-1.1457,-1.1469,-1.1444,-1.1461,-1.1443,-1.1446,-1.1442,-1.1443,-1.1443,-1.1415,-1.1458,-1.1528,-1.1535,-1.1444,-1.1443,-1.1443,0,-1.1505,-1.1511,-1.1527,-1.1526,-1.1514,-1.1522,-1.1517,-1.1511,-1.1513,-1.1513,-1.1514,-1.1516,-1.1517,-1.1519,-1.1503,-1.1486,-1.1523,-1.1496,-1.1518,-1.1518,-1.1527,-1.1526,-1.1598,-1.1529,-1.1528,-1.1528,-1.1528,0,-1.1558,-1.1574,-1.155,-1.156,-1.1578,-1.1558,-1.1576,-1.1569,-1.1563,-1.1572,-1.1549,-1.1558,-1.1536,-1.1543,-1.153,-1.1547,-1.1548,-1.1542,-1.1539,-1.1544,-1.1545,-1.1546,-1.1542,-1.153,-1.153,-1.1529,-1.1529,0,-1.1618,-1.1602,-1.1618,-1.1605,-1.1602,-1.1616,-1.1605,-1.1614,-1.1604,-1.1615,-1.1617,-1.16,-1.1607,-1.1591,-1.1595,-1.1587,-1.1611,-1.1603,-1.1613,-1.161,-1.1633,-1.1631,-1.1708,-1.1717,-1.1641,-1.1642,-1.1643,0,-1.1653,-1.1665,-1.1653,-1.1657,-1.1654,-1.166,-1.1662,-1.1643,-1.1646,-1.1641,-1.1651,-1.1655,-1.1658,-1.167,-1.1659,-1.1662,-1.1654,-1.168,-1.1654,-1.166,-1.1655,-1.1654,-1.1655,-1.1686,-1.1687,-1.1688,-1.1688,0,-1.1716,-1.1708,-1.1711,-1.1712,-1.1715,-1.1715,-1.1714,-1.1718,-1.1698,-1.1702,-1.1709,-1.1711,-1.1715,-1.172,-1.1721,-1.1717,-1.17,-1.1697,-1.1702,-1.1708,-1.1713,-1.1711,-1.1628,-1.1695,-1.1694,-1.1694,-1.1693,-1.1693,-1.1765,-1.1774,-1.1768,-1.1773,-1.1769,-1.1769,-1.1777,-1.1767,-1.1772,-1.1774,-1.1762,-1.1771,-1.1766,-1.1766,-1.1763,-1.177,-1.1758,-1.1766,-1.1768,-1.177,-1.1774,-1.1712,-1.177,-1.177,-1.177,-1.177,-1.177,0,-1.1827,-1.1822,-1.1826,-1.1825,-1.1829,-1.1812,-1.1809,-1.1814,-1.1822,-1.1819,-1.1822,-1.1829,-1.1834,-1.1824,-1.1827,-1.1835,-1.1827,-1.1837,-1.1836,-1.1836,-1.1784,-1.1779,-1.1843,-1.1843,-1.1843,-1.1843,-1.1843,-1.1843,-1.186,-1.1876,-1.1867,-1.1881,-1.1876,-1.1884,-1.1884,-1.1884,-1.1881,-1.189,-1.1894,-1.1887,-1.1881,-1.1884,-1.1888,-1.1885,-1.1888,-1.19,-1.1894,-1.1846,-1.1839,-1.1832,-1.1828,-1.19,-1.1901,-1.1945,-1.1945,-1.1946]},{"header":{"parameterUnit":"m.s-1","parameterCategory":1,"la1":30.2991,"la2":30.254,"lo1":-89.0895,"lo2":-89.0444,"dy":0.0017,"dx":0.0017,"nx":28,"ny":28,"refTime":"2025-05-22T21:00:00:Z","depth":0,"parameterNumber":3,"parameterNumberName":"V-component_of_WINDS"},"data":[0,0,0,0,0,0,0,0,0,0,0,0,0,0,0,0,0,0,0,0,0,0,0,0,0,0,0,0,0,0,0,0,0,0,0,0,0,0,0,0,0,0,0,0,0,0,0,0,0,0,0,0,0,0,0,0,0,0,4.1156,4.1156,0,4.1155,4.1155,4.1155,4.1121,4.112,4.1119,4.1118,4.1116,4.1117,4.1117,0,0,0,0,0,0,0,0,0,0,0,0,0,4.113,4.113,4.1156,4.1156,4.1156,4.1155,4.1155,4.1155,4.1121,4.112,4.1119,4.1118,4.1116,4.1117,4.1118,0,0,0,0,0,0,0,0,0,0,0,0,0,4.1136,4.1131,4.1156,4.1139,4.1138,4.1155,4.1155,4.1155,4.1121,4.112,4.1119,4.1117,4.1115,4.1117,4.1118,4.1151,0,0,4.1121,4.1122,0,0,0,0,0,0,0,0,4.1136,4.1137,4.1142,4.1141,4.1139,4.1137,4.1145,4.1153,4.1122,4.1128,4.1118,4.1117,4.1124,4.1124,4.1127,4.1151,4.1151,4.1121,4.1122,4.1122,4.1123,0,0,0,0,0,0,0,4.1135,4.1137,4.1156,4.1142,4.114,4.1132,4.1131,4.1146,4.1133,4.1127,4.1124,4.1125,4.1123,4.1126,4.1127,4.1151,4.1121,4.1122,4.1123,4.1123,4.1202,4.1203,0,0,0,0,0,0,4.1137,4.1137,4.1156,4.1156,4.1134,4.1133,4.1133,4.1139,4.1133,4.1131,4.1126,4.1123,4.1125,4.1125,4.1126,4.1165,4.1122,4.1123,4.1124,4.1201,4.1202,4.1204,0,0,0,0,0,0,4.1137,4.1139,4.1156,4.1146,4.1147,4.1135,4.1142,4.1139,4.1142,4.1132,4.1129,4.1131,4.1124,4.1125,4.1145,4.1164,4.1124,4.1125,4.1199,4.1201,4.1203,4.1242,0,0,0,0,0,0,4.1136,4.1139,4.1152,4.1146,4.1148,4.1175,4.1143,4.114,4.1144,4.1141,4.1136,4.1134,4.1123,4.1144,4.1146,4.1165,4.1126,4.1197,4.12,4.1202,4.1238,4.1245,4.125,0,0,0,0,0,4.1135,4.1162,4.1153,4.1155,4.1163,4.1176,4.1177,4.1163,4.1146,4.1158,4.1152,4.1135,4.1162,4.1146,4.1149,4.1168,4.1196,4.1199,4.1202,4.1236,4.1243,4.125,0,0,0,0,0,0,4.117,4.1161,4.115,4.1176,4.1177,4.117,4.1185,4.1171,4.1177,4.1173,4.1155,4.1155,4.1178,4.1175,4.1157,4.12,4.1176,4.118,4.1201,4.1208,4.1213,4.1213,4.1127,0,0,0,0,0,4.118,4.1192,4.1184,4.1207,4.1209,4.1197,4.1202,4.1191,4.1191,4.1192,4.1186,4.1187,4.1196,4.1202,4.1209,4.1239,4.1237,4.1253,4.1259,4.1264,4.1267,4.1282,4.1289,4.1214,4.1214,4.1214,0,0,4.1202,4.1199,4.1207,4.1214,4.1214,4.1226,4.1197,4.1211,4.122,4.1193,4.1212,4.1209,4.1209,4.1234,4.1244,4.1232,4.1288,4.1268,4.1272,4.1272,4.1286,4.1293,4.13,4.1216,4.1216,4.1216,0,0,4.1248,4.1247,4.1267,4.1267,4.1267,4.1259,4.1264,4.126,4.1257,4.1276,4.1256,4.1267,4.1282,4.1282,4.1285,4.1333,4.1317,4.1336,4.1365,4.1381,4.1387,4.1392,4.1408,4.1415,4.1339,4.1339,4.1339,0,4.1275,4.1292,4.1278,4.1294,4.1297,4.1275,4.1295,4.1296,4.1298,4.1301,4.1288,4.1307,4.1305,4.133,4.1342,4.1345,4.135,4.1335,4.1387,4.1392,4.1396,4.1412,4.1419,4.1342,4.1341,4.1341,4.1341,0,4.1325,4.1338,4.1354,4.1357,4.1363,4.1381,4.1369,4.1377,4.1367,4.136,4.138,4.1378,4.1384,4.139,4.1379,4.1413,4.1406,4.139,4.1365,4.1406,4.1421,4.1427,4.1345,4.1344,4.1343,4.1343,0,0,4.139,4.1387,4.1393,4.1395,4.1394,4.1404,4.1421,4.1428,4.1434,4.1437,4.1451,4.1465,4.1451,4.1454,4.1443,4.1457,4.1495,4.1439,4.1439,4.1449,4.1532,4.1543,4.155,4.1485,4.1486,4.1487,4.1532,0,4.1434,4.1463,4.1452,4.1481,4.1493,4.1473,4.1488,4.1489,4.1484,4.1493,4.1488,4.1498,4.1479,4.148,4.1493,4.1487,4.1511,4.1484,4.1497,4.1497,4.1496,4.1558,4.157,4.1612,4.1538,4.1538,4.1539,0,4.1488,4.1494,4.1526,4.1524,4.1528,4.1541,4.1547,4.1557,4.1558,4.1554,4.1558,4.1545,4.1561,4.1538,4.156,4.1542,4.1547,4.1545,4.1547,4.1546,4.152,4.1559,4.1625,4.1632,4.1548,4.1547,4.1547,0,4.1532,4.1548,4.1569,4.1571,4.1569,4.1579,4.1579,4.1579,4.1584,4.159,4.1593,4.16,4.1604,4.161,4.16,4.1584,4.1624,4.1599,4.162,4.162,4.1628,4.1627,4.1696,4.1633,4.1633,4.1633,4.1633,0,4.1582,4.1601,4.1589,4.1601,4.1623,4.161,4.1632,4.1629,4.163,4.1642,4.1625,4.1636,4.1622,4.1632,4.1624,4.1644,4.1646,4.1643,4.164,4.1644,4.1644,4.1645,4.1642,4.1634,4.1634,4.1634,4.1633,0,4.1633,4.1626,4.1647,4.1644,4.1644,4.166,4.1658,4.1669,4.1664,4.168,4.1682,4.1674,4.1685,4.1676,4.1686,4.1681,4.1707,4.1701,4.1707,4.1705,4.1726,4.1724,4.1796,4.1805,4.1738,4.1738,4.1739,0,4.1665,4.1679,4.1679,4.1686,4.1687,4.1699,4.1704,4.1693,4.1699,4.1703,4.1714,4.1724,4.1731,4.175,4.1744,4.1753,4.1746,4.1771,4.1747,4.175,4.1745,4.1744,4.1746,4.1775,4.1776,4.1777,4.1777,0,4.1721,4.1717,4.1726,4.1735,4.1742,4.1748,4.1752,4.1759,4.1747,4.1756,4.1767,4.1773,4.1784,4.1794,4.1801,4.18,4.1787,4.1785,4.179,4.1793,4.1796,4.1794,4.1719,4.1783,4.1783,4.1782,4.1782,4.1782,4.1763,4.1775,4.1777,4.1788,4.1791,4.1796,4.1807,4.1804,4.1813,4.1822,4.1815,4.1829,4.183,4.1838,4.1839,4.185,4.1839,4.1847,4.1849,4.1851,4.1853,4.1796,4.1851,4.1851,4.1851,4.1851,4.1851,0,4.1818,4.1819,4.1829,4.1836,4.1845,4.1833,4.1838,4.1846,4.1858,4.1861,4.1869,4.1883,4.1893,4.1889,4.1898,4.1907,4.1901,4.191,4.1908,4.1909,4.1862,4.1857,4.1914,4.1914,4.1914,4.1914,4.1914,4.1914,4.1847,4.1868,4.1865,4.1886,4.1887,4.1901,4.1904,4.1909,4.1911,4.1928,4.1936,4.1934,4.1934,4.1943,4.1952,4.1951,4.1954,4.1965,4.1961,4.1918,4.1912,4.1906,4.19,4.1966,4.1966,4.2006,4.2007,4.2007]}]]